Regional Weather Roundup
Issued by NWS

Home | Current Version | Previous Version | Graphics & Text | Print | Product List | Glossary On
Versions: 1 2 3 4 5 6 7 8 9 10 11 12 13 14 15 16 17 18 19 20 21 22 23 24 25 26 27 28 29 30 31 32 33 34 35 36 37 38 39 40 41 42 43 44 45 46 47 48 49 50
000
ASUS43 KMKX 210520
RWRWI

WISCONSIN REGIONAL WEATHER ROUNDUP
NATIONAL WEATHER SERVICE MILWAUKEE/SULLIVAN WI
1100 PM CST SAT JAN 20 2018

NOTE: "FAIR" INDICATES FEW OR NO CLOUDS BELOW 12,000 FEET WITH NO
SIGNIFICANT WEATHER AND/OR OBSTRUCTIONS TO VISIBILITY.

WIZ001-002-006>008-014>016-023>028-210600-
NORTHWEST WISCONSIN

CITY           SKY/WX    TMP DP  RH WIND       PRES   REMARKS
SUPERIOR ARPT  FAIR      32  27  83 SW6       29.93R WCI  26
ASHLAND        FAIR      30  27  88 SW6       29.92R WCI  24
HAYWARD        FAIR      24  21  88 CALM      29.92R FOG
SIREN          MOCLDY    30  29  98 CALM      29.95R
CUMBERLAND     CLOUDY    32  30  93 SW3       29.93R
RICE LAKE      FAIR      30  29  96 CALM      29.95R
CHETEK         MOCLDY    28  28 100 CALM      29.93R
LADYSMITH      MOCLDY    32  29  92 CALM      29.93R
EAU CLAIRE     FAIR      29  27  92 CALM      29.93S FOG
MENOMONIE      FAIR      29  28  97 CALM      29.94R
NEW RICHMOND   CLOUDY    33  29  86 CALM      29.95R
OSCEOLA        CLOUDY    32  32 100 CALM      29.98R
$$

WIZ003>005-009-010-017-018-210600-
NORTH CENTRAL WISCONSIN

CITY           SKY/WX    TMP DP  RH WIND       PRES   REMARKS
MANITOWISH WTR   N/A     22  22 100 CALM      29.89S FOG
ARBOR VITAE    FAIR      27  26  96 CALM      29.89S FOG
WOODRUFF       FAIR      27  26  96 CALM      29.89S FOG
RHINELANDER    FAIR      32  29  88 CALM      29.90S
EAGLE RIVER    FOG       24  24  99 CALM      29.89S VSB 1
LAND O LAKES   FOG       22  21  96 CALM      29.90S VSB 1/2
PHILLIPS       FAIR      29  29  99 CALM      29.91R
TOMAHAWK       FAIR      29  28  94 CALM      29.92R
MEDFORD        FAIR      29  27  94 CALM      29.91R FOG
MERRILL        FAIR      29  29 100 CALM      29.93R FOG
$$

WIZ029-030-035-036-043>047-210600-
CENTRAL WISCONSIN

CITY           SKY/WX    TMP DP  RH WIND       PRES   REMARKS
WAUSAU         FAIR      30  28  92 CALM      29.90F
MOSINEE        NOT AVBL
MARSHFIELD     FAIR      31  29  92 CALM      29.91S
STEVENS POINT  FAIR      28  28 100 CALM      29.94S
WAUPACA        FAIR      31  28  90 CALM      29.95S
WAUTOMA        NOT AVBL
WISC RAPIDS    FAIR      29  25  85 CALM      29.94S
CAMP DOUGLAS   FAIR      26  26  99 CALM      29.93R
$$

WIZ011>013-019>022-031-037>040-048>050-210600-
NORTHEAST WISCONSIN

CITY           SKY/WX    TMP DP  RH WIND       PRES   REMARKS
ANTIGO         FAIR      28  26  95 CALM      29.92S
SHAWANO        FAIR      32  30  90 CALM      29.94S
OCONTO         FAIR      30  28  94 CALM      29.94S
STURGEON BAY   FAIR      34  29  82 S6        29.96S WCI  29
GREEN BAY      FAIR      32  30  92 CALM      29.95S FOG
MANITOWOC      FAIR      28  26  92 CALM      29.97R FOG
APPLETON       MOCLDY    34  27  75 CALM      29.93S
CLINTONVILLE   FAIR      30  28  93 CALM      29.94S
OSHKOSH        FAIR      32  29  88 S5        29.94S WCI  27
$$

WIZ032>034-041-042-053>061-210600-
SOUTHWEST WISCONSIN

CITY           SKY/WX    TMP DP  RH WIND       PRES   REMARKS
LA CROSSE      FAIR      28  26  92 CALM      29.94R FOG
SPARTA         FAIR      26  26  97 CALM      29.94R
VIROQUA        FAIR      37  32  85 S6        29.92R WCI  32
BOSCOBEL       FAIR      27  25  92 CALM      29.96R FOG
PRAIRIE DU CHI FAIR      29  27  91 CALM      29.95R
PLATTEVILLE    FAIR      32  32 100 SE5       29.94S WCI  27
$$

WIZ056-057-062-063-064-067-068-210600-
SOUTH CENTRAL WISCONSIN

CITY           SKY/WX    TMP DP  RH WIND       PRES   REMARKS
REEDSBURG      FAIR      28  28 100 CALM      29.93S
BARABOO/DELLS  FAIR      31  29  91 CALM      29.92F
LONE ROCK      FAIR      30  29  96 E3        29.95R FOG
MINERAL POINT  FAIR      34  34 100 S5        29.94R WCI  30
MADISON        FAIR      29  27  92 S3        29.95F FOG
MIDDLETON      FAIR      31  31  97 CALM      29.94F
WATERTOWN      FAIR      27  27 100 CALM      29.95F
MONROE         FAIR      32  32 100 S7        29.95R FOG     WCI  26
JANESVILLE     FAIR      34  34 100 CALM      29.96S FOG
$$

WIZ051-052-058>065-066-070>072-210600-
SOUTHEAST WISCONSIN

CITY           SKY/WX    TMP DP  RH WIND       PRES   REMARKS
MILWAUKEE      FAIR      36  33  89 SW7       29.97S WCI  30
WAUKESHA       FAIR      32  30  93 SW5       29.97F WCI  27
MILWAUKEE/TIMM FAIR      32  28  86 CALM      29.98S
RACINE         CLOUDY    37  34  89 SW6       29.99S WCI  32
BURLINGTON     MOCLDY    32  31  94 CALM      29.97F
KENOSHA        CLOUDY    38  34  85 SW5       29.98S WCI  34
FOND DU LAC    FAIR      33  28  81 S5        29.95S WCI  29
SHEBOYGAN      FAIR      31  29  92 CALM      29.96R
WEST BEND      FAIR      28  28 100 CALM      29.96S
JUNEAU         FAIR      32  30  92 CALM      29.96S
$$

LSZ147-162-210600-
LAKE SUPERIOR

STATION/POSITION TIME  TEMP    WIND        PRES    WAVE
                       AIR SEA DIR/SP/G            HT/PER
                 (UTC) (F)     (DEG/KT/KT) (MB)    (FT/S)
DEVILS ISLAND    0500   35     260/ 10/ 11 1013.4R
SAXON HARBOR     0440   34     180/  6/  9 1012.2S
$$

LMZ867-665-643>646-210600-
LAKE MICHIGAN

STATION/POSITION TIME  TEMP    WIND        PRES    WAVE
                       AIR SEA DIR/SP/G            HT/PER
                 (UTC) (F)     (DEG/KT/KT) (MB)    (FT/S)
NORTHPORT PIER   0501   31     150/  2/  5 1013.9
KEWAUNEE LAKESHO 0454   31        CALM     1013.9R
SHEBOYGAN LAKESH 0500   34     240/  3/  3 1015.1R
PORT WASHINGTON  0430   31     260/  2/  3 1015.9R
MILWAUKEE LAKESH 0500   38     220/  7/  7   N/A
KENOSHA   LAKESH 0500   39     220/  4/  6 1015.2
$$

TC  - TEMPERATURE IN CELSIUS
VSB - VISIBILITY IN STATUTE MILES
WCI - WIND CHILL INDEX
HX  - HEAT INDEX





USA.gov is the U.S. government's official web portal to all federal, state and local government web resources and services.